Regional Weather Roundup
Issued by NWS Wakefield, VA

Home | Current Version | Previous Version | Graphics & Text | Print | Product List | Glossary On
Versions: 1 2 3 4 5 6 7 8 9 10 11 12 13 14 15 16 17 18 19 20 21 22 23 24 25 26 27 28 29 30 31 32 33 34 35 36 37 38 39 40 41 42 43 44 45 46 47 48 49 50
000
ASUS41 KAKQ 181910
RWRAKQ

REGIONAL WEATHER ROUNDUP
NATIONAL WEATHER SERVICE WAKEFIELD VA
200 PM EST THU DEC 18 2014

Note: "fair" indicates few or no clouds below 12,000 feet with no
significant weather and/or obstructions to visibility. * = Denotes
station may not report precipitation (e.g., rain,snow,etc.),
thunder or fog.

VAZ042-051-052>054-056-182000-
NORTHERN VIRGINIA

CITY           SKY/WX    TMP DP  RH WIND       PRES   REMARKS
WASH NATIONAL  PTSUNNY   42  22  44 NW18      30.12F
DULLES         PTSUNNY   38  21  50 NW16      30.10F
FORT BELVOIR   SUNNY     40  21  46 NW15G26   30.12F
QUANTICO       MOSUNNY   42  22  44 N9        30.13S
FREDERICKSBRG* SUNNY     44  24  46 NW12      30.10F
STAFFORD*      SUNNY     41  22  47 NW7       30.14F
WARRENTON      SUNNY     43  30  59 N9        30.09F
CULPEPER*      SUNNY     43  25  49 N7        30.10F
MANASSAS*      MOSUNNY   39  25  56 N12G18    30.12F
LEESBURG*      CLOUDY    37  27  65 NW13G22   30.11F
WINCHESTER     PTSUNNY   36  19  51 NW13G22   30.10F
FRONT ROYAL*   PTCLDY    36  23  60 NW6       30.09F
LURAY*         PTCLDY    41  23  48 CALM      30.07F
$$

VAZ048-049-060>072-079>083-182000-
CENTRAL AND SOUTH CENTRAL VIRGINIA

CITY           SKY/WX    TMP DP  RH WIND       PRES   REMARKS
RICHMOND       MOSUNNY   47  21  35 NW9       30.10F
CHESTERFIELD*  CLEAR     46  19  34 NW3       30.10F
PETERSBURG*    SUNNY     47  23  39 CALM      30.10F
HANOVER        SUNNY     42  23  46 W7        30.12F
TAPPAHANNOCK*  SUNNY     44  17  34 NW5       30.10S
QUINTON*       CLEAR     43  22  43 NW6       30.10F
CHARLOTTSVILLE MOSUNNY   43  21  41 S7        30.07F
GORDONSVILLE*  PTCLDY    41  22  46 NE3       30.08F
ORANGE*        MOSUNNY   41  23  48 CALM      30.10F
LOUISA*        MOSUNNY   45  23  42 N3        30.07F
BUMPASS*       PTCLDY    42  22  44 NW5       30.09F
FARMVILLE*     MOSUNNY   51  21  30 CALM      30.07F
CREWE*         MOCLDY    46  20  35 CALM      30.08F
FORT PICKETT*  MOCLDY    46  22  38 CALM      30.08F
CHASE CITY*    CLOUDY    47  26  44 W3        30.09F
CLARKSVILLE*   MOCLDY    45  27  49 W5        30.09F
SOUTH HILL*    PTSUNNY   45  24  44 CALM      30.15F
LAWRENCEVILLE* MOCLDY    46  26  45 SW6       30.09F
EMPORIA*       MOSUNNY   45  28  53 W3        30.12F
$$

VAZ088>098-182000-
SOUTHEAST VIRGINIA

CITY           SKY/WX    TMP DP  RH WIND       PRES   REMARKS
NORFOLK        SUNNY     45  25  45 N7        30.09F
VIRGINIA BEACH MOSUNNY   47  26  44 N12       30.08F
NORFOLK NAVAL  MOSUNNY   48  24  39 W10       30.10F
WEST POINT*    SUNNY     47  19  32 W7        30.11F
SALUDA*        FAIR      43  23  46 NW9       30.08F
NEWPORT NEWS   SUNNY     48  24  39 W10       30.10F
LANGLEY AFB    SUNNY     46  24  42 N7        30.09F
FORT EUSTIS    SUNNY     46  25  44 W8        30.08F
WILLIAMSBURG*  SUNNY     52  27  37 NW7       30.10F
HR EXEC AP*    CLEAR     46  27  46 NW7       30.11F
FRANKLIN*      SUNNY     46  25  42 NW5       30.10F
WAKEFIELD      SUNNY     47  23  38 VRB6      30.10F
$$

VAZ020-022-025-037-045-182000-
WEST CENTRAL AND SOUTHWEST VIRGINIA

CITY           SKY/WX    TMP DP  RH WIND       PRES   REMARKS
STAUNTON*      MOSUNNY   40  21  46 NE5       30.07F
WAYNESBORO*    PTCLDY    37  21  52 NE3       30.05F
HOT SPRINGS VA CLOUDY    30  20  65 W12       29.95F WCI  20
LYNCHBURG      PTSUNNY   41  20  43 W5        30.09F
DANVILLE       CLOUDY    45  24  43 W6        30.10F
SOUTH BOSTON*  CLOUDY    45  20  37 W5        30.10F
MARTINSVILLE   CLOUDY    43  24  46 CALM      30.11F
ROANOKE        CLOUDY    40  22  48 W7        30.10F
BLACKSBURG     PTSUNNY   36  22  57 W7        30.09S
DUBLIN*        PTSUNNY   40  24  53 SW5       30.08S
MARION*        PTSUNNY   40  23  49 W10       30.09S
HILLSVILLE*    CLOUDY    36  20  53 NW7       30.04F
RICHLANDS*     MOCLDY    38  20  47 SW5       30.08F
WISE*          CLOUDY    39  23  52 CALM      30.08F
ABINGDON*      CLOUDY    40  28  63 CALM      30.10F
$$

MDZ021>025-VAZ099-100-182000-
SOUTHERN MARYLAND AND THE DELMARVA PENINSULA

CITY           SKY/WX    TMP DP  RH WIND       PRES   REMARKS
PATUXENT RIVER MOSUNNY   41  21  44 NW15      30.09F
BAY BRIDGE APT   N/A     39  23  52 NW13G18   30.09F
LEONARDTOWN    SUNNY     39  21  48 W10       30.10F
DOVER          SUNNY     40  22  48 NW17G25   30.02F
GEORGETOWN     SUNNY     41  21  44 NW7G22    30.05F
EASTON         MOSUNNY   41  25  52 NW10G20   30.11F
CAMBRIDGE      SUNNY     41  25  52 NW10G20   30.07
SALISBURY      SUNNY     43  23  45 NW13G21   30.06F
OCEAN CITY     SUNNY     41  23  48 NW12      30.05F
WALLOPS ISLAND MOSUNNY   41  24  51 NW14G22   30.07F
ACCOMACK*      SUNNY     41  25  52 NW13G18   30.08F
$$

NCZ012>017-030>032-182000-
NORTH CENTRAL AND EASTERN NORTH CAROLINA

CITY           SKY/WX    TMP DP  RH WIND       PRES   REMARKS
ROANOKE RAPIDS MOCLDY    45  28  53 CALM      30.10F
RALEIGH        PTSUNNY   50  23  34 W6        30.11F
ELIZABETH CITY SUNNY     51  26  37 CALM      30.10F
AHOSKIE*       MOSUNNY   46  27  48 CALM      30.11F
EDENTON*       SUNNY     47  31  53 W8        30.12S
CURRITUCK*     SUNNY     48  23  37 CALM      30.10F
KILL DEVIL HLS SUNNY     45  31  59 N6        30.09F
MANTEO         SUNNY     44  30  57 N8        30.11F
CAPE HATTERAS  SUNNY     48  35  60 MISG      30.10F
TARBORO*       CLEAR     49  29  46 CALM      30.12F
GOLDSBORO      MOSUNNY   51  31  46 CALM      30.10F
WASHINGTON     SUNNY     49  27  43 CALM      30.11F
GREENVILLE     SUNNY     50  28  43 N3        30.12F
NEW BERN       SUNNY     53  26  35 CALM      30.11F
WILMINGTON     SUNNY     57  28  33 CALM      30.09F
$$

VAZ048-182000-
ELSEWHERE

CITY           SKY/WX    TMP DP  RH WIND       PRES   REMARKS
HARRISBURG PA  CLOUDY    35  23  61 NW17G24   30.08S WCI  25
BALTIMORE      PTSUNNY   38  22  52 NW14      30.09F
ANNAPOLIS      MOSUNNY   39  24  55 NW15G22   30.09F
ANDREWS AFB    MOSUNNY   39  22  50 NW16      30.09F
PHILADELPHIA   MOSUNNY   41  23  48 W17G23    30.03F
HENDERSON NC   CLOUDY    46  22  39 CALM      30.09F
GREENSBORO     PTSUNNY   45  20  36 NW7       30.09F
ROCKY MOUNT    MOSUNNY   49  25  39 NW6       30.11F
$$

VAZ100-182000-
MARINE

STATION/POSITION TIME  TEMP    WIND        PRES    WAVE   SWELL
                       AIR SEA DIR/SP/G            HT/PER HT/PER
                 (UTC) (F)     (DEG/KT/KT) (MB)    (FT/S) (FT/S)
CAPE MAY NJ      1900   39 42  310/ 17/ 22 1016.6S
LEWES DE         1900   39 43  310/ 18/ 20 1017.0F
15NM E FENWICK I 1900   40 47              1016.7F   3/ 5
OCEAN-CITY-INLET 1900   40 44  320/ 13/ 17 1017.2F
WACHAPREAGUE VA  1900   41 44  290/  5/ 16 1018.4F
THOMAS POINT MD  1900   37 42  300/ 19/ 22 1019.6F
GOOSES REEF MD   1900   39     VRB 14/ 17  1018.0F
COVE POINT MD    1900   37     350/ 14/ 16 1018.7F
SOLOMONS ISLAND  1900      44                N/A
BISHOPS HEAD MD  1900   39 41  320/ 15/ 19 1018.3S
PINEY POINT MD   1900          350/ 15/ 17   N/A
POTOMAC MD       1900   40     310/ 16/ 17 1018.1F
CAMBRIDGE MD     1900   38 41  310/ 14/ 18 1018.4S
LEWISETTA VA     1900   40 44  340/ 11/ 14 1018.9R
RAPPAHANNOCK LGT 1900          330/ 15/ 17 1019.1S
STINGRAY PT      1900   42     290/ 14/ 16 1019.3F
YORKTOWN VA      1800   42 46  320/  9/ 11 1019.3F
JAMESTOWN VA     1900   43     300/  8/ 10   N/A
DOMINION TERM VA 1900   42     320/ 10/ 11 1019.3S
KIPTOPEKE VA     1900      50  350/ 11/ 13   N/A
CHES BAY BRIDGE  1900   41 46  340/  7/  9 1018.6F
CAPE HENRY VA    1900   41     320/  8/  9 1017.8F
CHESAPEAKE LGHT  1800   41     330/ 16/ 18 1019.8F
WILLOUBY STN VA  1900   43     260/ 11/ 12 1019.2F
S CRANEY ISL VA  1900          310/  7/ 12 1019.0F
CAPE HENRY BUOY  1800      49                N/A     4/ 6
1ST LANDING BUOY 1900   42     340/ 10/ 12 1018.7F
CAPE CHARLES BUO 1900      48                N/A     3/ 5   2/ 7
64NM E OF VA BCH 1900   43 54  330/ 14/ 19 1018.0F   5/ 7   2/ 8
DUCK PIER NC     1900   42 49   10/  8/ 11 1018.5S
44100 DUCK FRF   1900      52                N/A     5/ 6
44056 DUCK FRF   1900      49                N/A     4/ 6
OREGON INLET NC  1900   44 51   10/  9/ 12 1019.4F
HATTERAS NC      1900   45 55   10/  7/ 11 1019.8F
DIAMOND SHLS NC  1900   48                 1019.5F   3/ 6
CAPE LOOKOUT NC  1800   48      40/ 10/ 11 1019.3F
$$


USA.gov is the U.S. government's official web portal to all federal, state and local government web resources and services.